| time (UTC) | temp C | wind direction | speed KPH | gust KPH | rain 1hr cm | rain 24hr cm | rain mn cm | humidity % | barometer mb |
| 20260906113503 | 30 | 43 | 20.9 | 25.7 | 0.00 | 0.00 | 0.00 | 52 | 1021.5 |
| 20260906113217 | 30 | 49 | 22.5 | 25.7 | 0.00 | 0.00 | 0.00 | 55 | 1021.4 |
| 20260906112504 | 30 | 37 | 14.5 | 25.7 | 0.00 | 0.00 | 0.00 | 52 | 1021.5 |
| 20260906112004 | 30 | 19 | 12.9 | 20.9 | 0.00 | 0.00 | 0.00 | 52 | 1021.3 |
| 20260906111721 | 30 | 39 | 12.9 | 20.9 | 0.00 | 0.00 | 0.00 | 53 | 1021.4 |
| 20260906111003 | 29 | 64 | 12.9 | 16.1 | 0.00 | 0.00 | 0.00 | 52 | 1021.4 |
| 20260906110503 | 30 | 55 | 14.5 | 19.3 | 0.00 | 0.00 | 0.00 | 52 | 1021.4 |
| 20260906110004 | 30 | 56 | 16.1 | 24.1 | 0.00 | 0.00 | 0.00 | 52 | 1021.3 |
| 20260906105713 | 30 | 62 | 17.7 | 24.1 | 0.00 | 0.00 | 0.00 | 53 | 1021.3 |
| 20260906105003 | 29 | 42 | 19.3 | 20.9 | 0.00 | 0.00 | 0.00 | 56 | 1021.5 |
| 20260906104714 | 29 | 31 | 19.3 | 20.9 | 0.00 | 0.00 | 0.00 | 57 | 1021.8 |
| 20260906104217 | 29 | 25 | 14.5 | 20.9 | 0.00 | 0.00 | 0.00 | 59 | 1021.6 |
| 20260906103504 | 29 | 46 | 16.1 | 20.9 | 0.00 | 0.00 | 0.00 | 59 | 1021.5 |
| 20260906103005 | 29 | 94 | 17.7 | 24.1 | 0.00 | 0.00 | 0.00 | 60 | 1021.7 |
| 20260906102504 | 29 | 100 | 14.5 | 24.1 | 0.00 | 0.00 | 0.00 | 59 | 1021.6 |
| 20260906102214 | 29 | 95 | 14.5 | 17.7 | 0.00 | 0.00 | 0.00 | 58 | 1021.7 |
| 20260906101716 | 29 | 71 | 14.5 | 17.7 | 0.00 | 0.00 | 0.00 | 60 | 1021.8 |
| 20260906101004 | 29 | 45 | 11.3 | 14.5 | 0.00 | 0.00 | 0.00 | 60 | 1021.7 |
| 20260906100504 | 29 | 58 | 9.7 | 14.5 | 0.00 | 0.00 | 0.00 | 59 | 1021.8 |
| 20260906100215 | 29 | 54 | 9.7 | 14.5 | 0.00 | 0.00 | 0.00 | 61 | 1021.9 |
| 20260906095504 | 29 | 35 | 11.3 | 17.7 | 0.00 | 0.00 | 0.00 | 60 | 1022.0 |
| 20260906095003 | 29 | 74 | 11.3 | 17.7 | 0.00 | 0.00 | 0.00 | 60 | 1022.1 |
| 20260906094504 | 29 | 80 | 11.3 | 14.5 | 0.00 | 0.00 | 0.00 | 61 | 1021.8 |
| 20260906094003 | 29 | 37 | 9.7 | 12.9 | 0.00 | 0.00 | 0.00 | 61 | 1021.9 |
| 20260906093504 | 29 | 42 | 6.4 | 9.7 | 0.00 | 0.00 | 0.00 | 61 | 1022.0 |
| 20260906093003 | 28 | 53 | 8.0 | 11.3 | 0.00 | 0.00 | 0.00 | 61 | 1022.0 |
| 20260906092503 | 28 | 56 | 11.3 | 12.9 | 0.00 | 0.00 | 0.00 | 63 | 1021.9 |
| 20260906092003 | 28 | 78 | 12.9 | 12.9 | 0.00 | 0.00 | 0.00 | 63 | 1022.3 |
| 20260906091504 | 28 | 72 | 12.9 | 14.5 | 0.00 | 0.00 | 0.00 | 63 | 1022.2 |
| 20260906091003 | 28 | 49 | 12.9 | 14.5 | 0.00 | 0.00 | 0.00 | 63 | 1022.0 |
| 20260906090504 | 28 | 59 | 12.9 | 14.5 | 0.00 | 0.00 | 0.00 | 63 | 1022.1 |
| 20260906090004 | 28 | 68 | 12.9 | 17.7 | 0.00 | 0.00 | 0.00 | 63 | 1022.0 |
| 20260906085503 | 28 | 82 | 12.9 | 17.7 | 0.00 | 0.00 | 0.00 | 65 | 1022.0 |
| 20260906085217 | 28 | 93 | 11.3 | 17.7 | 0.00 | 0.00 | 0.00 | 64 | 1022.3 |
| 20260906084504 | 28 | 50 | 11.3 | 12.9 | 0.00 | 0.00 | 0.00 | 64 | 1021.9 |
| 20260906084004 | 28 | 69 | 11.3 | 12.9 | 0.00 | 0.00 | 0.00 | 64 | 1022.1 |
| 20260906083504 | 28 | 122 | 11.3 | 12.9 | 0.00 | 0.00 | 0.00 | 64 | 1022.0 |
| 20260906083003 | 28 | 153 | 11.3 | 12.9 | 0.00 | 0.00 | 0.00 | 64 | 1022.2 |
| 20260906082504 | 28 | 124 | 9.7 | 12.9 | 0.00 | 0.00 | 0.00 | 65 | 1021.9 |
| 20260906082003 | 28 | 83 | 9.7 | 12.9 | 0.00 | 0.00 | 0.00 | 65 | 1022.1 |
| 20260906081505 | 28 | 55 | 9.7 | 16.1 | 0.00 | 0.00 | 0.00 | 64 | 1022.1 |
| 20260906081003 | 28 | 43 | 8.0 | 16.1 | 0.00 | 0.00 | 0.00 | 65 | 1021.9 |
| 20260906080503 | 28 | 64 | 6.4 | 8.0 | 0.00 | 0.00 | 0.00 | 64 | 1021.8 |
| 20260906080004 | 28 | 103 | 8.0 | 11.3 | 0.00 | 0.00 | 0.00 | 64 | 1021.9 |
| 20260906075504 | 28 | 72 | 8.0 | 11.3 | 0.00 | 0.00 | 0.00 | 64 | 1021.7 |
| 20260906075212 | 28 | 74 | 8.0 | 11.3 | 0.00 | 0.00 | 0.00 | 64 | 1021.6 |
| 20260906074506 | 28 | 43 | 8.0 | 11.3 | 0.00 | 0.00 | 0.00 | 65 | 1021.8 |
| 20260906074004 | 28 | 66 | 9.7 | 14.5 | 0.00 | 0.00 | 0.00 | 64 | 1021.8 |
| 20260906073503 | 28 | 60 | 8.0 | 14.5 | 0.00 | 0.00 | 0.00 | 64 | 1021.6 |
| 20260906073214 | 28 | 29 | 6.4 | 9.7 | 0.00 | 0.00 | 0.00 | 62 | 1021.8 |
| 20260906072503 | 28 | 77 | 4.8 | 8.0 | 0.00 | 0.00 | 0.00 | 61 | 1021.7 |
| 20260906072003 | 28 | 62 | 6.4 | 8.0 | 0.00 | 0.00 | 0.00 | 61 | 1021.6 |
| 20260906071504 | 28 | 59 | 6.4 | 9.7 | 0.00 | 0.00 | 0.00 | 63 | 1021.4 |
| 20260906071003 | 28 | 36 | 6.4 | 9.7 | 0.00 | 0.00 | 0.00 | 63 | 1021.7 |
| 20260906070503 | 28 | 352 | 6.4 | 11.3 | 0.00 | 0.00 | 0.00 | 62 | 1021.7 |
| 20260906070004 | 27 | 39 | 6.4 | 11.3 | 0.00 | 0.00 | 0.00 | 63 | 1021.6 |
| 20260906065715 | 27 | 69 | 8.0 | 11.3 | 0.00 | 0.00 | 0.00 | 63 | 1021.5 |
| 20260906065218 | 27 | 98 | 8.0 | 11.3 | 0.00 | 0.00 | 0.00 | 63 | 1021.5 |
| 20260906064504 | 27 | 103 | 6.4 | 8.0 | 0.00 | 0.00 | 0.00 | 63 | 1021.5 |
| 20260906064003 | 27 | 114 | 6.4 | 9.7 | 0.00 | 0.00 | 0.00 | 63 | 1021.5 |
| 20260906063717 | 27 | 102 | 6.4 | 9.7 | 0.00 | 0.00 | 0.00 | 64 | 1021.4 |
| 20260906063003 | 27 | 342 | 3.2 | 8.0 | 0.00 | 0.00 | 0.00 | 64 | 1021.2 |
| 20260906062504 | 27 | 297 | 4.8 | 6.4 | 0.00 | 0.00 | 0.00 | 63 | 1021.3 |
| 20260906062005 | 27 | 276 | 4.8 | 6.4 | 0.00 | 0.00 | 0.00 | 63 | 1021.4 |
| 20260906061504 | 27 | 266 | 4.8 | 6.4 | 0.00 | 0.00 | 0.00 | 63 | 1021.1 |
| 20260906061003 | 26 | 221 | 6.4 | 8.0 | 0.00 | 0.00 | 0.00 | 64 | 1021.4 |
| 20260906060504 | 26 | 196 | 6.4 | 8.0 | 0.00 | 0.00 | 0.00 | 65 | 1021.2 |
| 20260906060003 | 26 | 203 | 6.4 | 8.0 | 0.00 | 0.00 | 0.00 | 65 | 1021.1 |
| 20260906055503 | 26 | 235 | 4.8 | 8.0 | 0.00 | 0.00 | 0.00 | 65 | 1021.3 |
| 20260906055004 | 26 | 250 | 4.8 | 8.0 | 0.00 | 0.00 | 0.00 | 70 | 1021.1 |
| 20260906054503 | 26 | 212 | 6.4 | 6.4 | 0.00 | 0.00 | 0.00 | 70 | 1021.3 |
| 20260906054004 | 26 | 200 | 6.4 | 6.4 | 0.00 | 0.00 | 0.00 | 71 | 1021.1 |
| 20260906053504 | 26 | 229 | 4.8 | 6.4 | 0.00 | 0.00 | 0.00 | 71 | 1021.2 |
| 20260906053003 | 26 | 278 | 3.2 | 6.4 | 0.00 | 0.00 | 0.00 | 71 | 1021.0 |
| 20260906052504 | 26 | 343 | 1.6 | 4.8 | 0.00 | 0.00 | 0.00 | 71 | 1021.1 |
| 20260906052003 | 25 | 32 | 1.6 | 3.2 | 0.00 | 0.00 | 0.00 | 71 | 1020.9 |
| 20260906051503 | 25 | 335 | 1.6 | 4.8 | 0.00 | 0.00 | 0.00 | 71 | 1021.1 |
| 20260906051004 | 25 | 279 | 3.2 | 4.8 | 0.00 | 0.00 | 0.00 | 71 | 1021.1 |
| 20260906050503 | 25 | 243 | 4.8 | 6.4 | 0.00 | 0.00 | 0.00 | 71 | 1021.0 |
| 20260906050003 | 25 | 230 | 3.2 | 6.4 | 0.00 | 0.00 | 0.00 | 70 | 1021.1 |
| 20260906045503 | 25 | 288 | 3.2 | 6.4 | 0.00 | 0.00 | 0.00 | 70 | 1021.1 |
| 20260906045004 | 25 | 257 | 4.8 | 6.4 | 0.00 | 0.00 | 0.00 | 71 | 1021.3 |
| 20260906044718 | 25 | 251 | 3.2 | 6.4 | 0.00 | 0.00 | 0.00 | 71 | 1020.9 |
| 20260906044216 | 25 | 230 | 3.2 | 6.4 | 0.00 | 0.00 | 0.00 | 71 | 1021.0 |
| 20260906043504 | 25 | 225 | 4.8 | 4.8 | 0.00 | 0.00 | 0.00 | 71 | 1020.9 |
| 20260906043216 | 25 | 225 | 4.8 | 4.8 | 0.00 | 0.00 | 0.00 | 71 | 1020.8 |
| 20260906042503 | 25 | 225 | 3.2 | 4.8 | 0.00 | 0.00 | 0.00 | 71 | 1021.1 |
| 20260906042004 | 25 | 226 | 4.8 | 4.8 | 0.00 | 0.00 | 0.00 | 71 | 1020.8 |
| 20260906041503 | 25 | 250 | 4.8 | 6.4 | 0.00 | 0.00 | 0.00 | 71 | 1020.8 |
| 20260906041003 | 25 | 271 | 4.8 | 6.4 | 0.00 | 0.00 | 0.00 | 70 | 1020.8 |
| 20260906040716 | 25 | 271 | 4.8 | 4.8 | 0.00 | 0.00 | 0.00 | 70 | 1021.0 |
| 20260906040004 | 25 | 251 | 4.8 | 8.0 | 0.00 | 0.00 | 0.00 | 70 | 1020.8 |
| 20260906035503 | 25 | 257 | 4.8 | 6.4 | 0.00 | 0.00 | 0.00 | 69 | 1020.8 |
| 20260906035215 | 25 | 257 | 4.8 | 4.8 | 0.00 | 0.00 | 0.00 | 68 | 1021.0 |
| 20260906034503 | 25 | 284 | 4.8 | 8.0 | 0.00 | 0.00 | 0.00 | 68 | 1020.7 |
| 20260906034003 | 25 | 265 | 6.4 | 8.0 | 0.00 | 0.00 | 0.00 | 67 | 1021.0 |
| 20260906033503 | 25 | 239 | 4.8 | 8.0 | 0.00 | 0.00 | 0.00 | 66 | 1020.6 |
| 20260906033003 | 25 | 243 | 6.4 | 8.0 | 0.00 | 0.00 | 0.00 | 65 | 1020.8 |
| 20260906032503 | 25 | 247 | 6.4 | 8.0 | 0.00 | 0.00 | 0.00 | 65 | 1020.8 |
| 20260906032004 | 25 | 251 | 6.4 | 8.0 | 0.00 | 0.00 | 0.00 | 65 | 1020.8 |
| 20260906031508 | 25 | 251 | 6.4 | 8.0 | 0.00 | 0.00 | 0.00 | 65 | 1020.7 |
| 20260906031214 | 25 | 247 | 6.4 | 8.0 | 0.00 | 0.00 | 0.00 | 65 | 1020.8 |
| 20260906030503 | 25 | 238 | 6.4 | 8.0 | 0.00 | 0.00 | 0.00 | 66 | 1020.7 |
| 20260906030004 | 25 | 229 | 6.4 | 8.0 | 0.00 | 0.00 | 0.00 | 67 | 1020.5 |
| 20260906025504 | 25 | 242 | 6.4 | 6.4 | 0.00 | 0.00 | 0.00 | 67 | 1020.5 |
| 20260906025003 | 25 | 237 | 4.8 | 6.4 | 0.00 | 0.00 | 0.00 | 67 | 1020.8 |
| 20260906024503 | 25 | 225 | 3.2 | 6.4 | 0.00 | 0.00 | 0.00 | 66 | 1020.7 |
| 20260906024004 | 25 | 275 | 3.2 | 4.8 | 0.00 | 0.00 | 0.00 | 66 | 1020.6 |
| 20260906023504 | 25 | 274 | 3.2 | 4.8 | 0.00 | 0.00 | 0.00 | 66 | 1020.6 |
| 20260906022504 | 25 | 278 | 3.2 | 4.8 | 0.00 | 0.00 | 0.00 | 64 | 1021.0 |
| 20260906022003 | 25 | 274 | 3.2 | 6.4 | 0.00 | 0.00 | 0.00 | 65 | 1021.1 |
| 20260906021504 | 25 | 230 | 4.8 | 6.4 | 0.00 | 0.00 | 0.00 | 64 | 1020.8 |
| 20260906021004 | 25 | 242 | 4.8 | 6.4 | 0.00 | 0.00 | 0.00 | 64 | 1020.7 |
| 20260906020717 | 25 | 262 | 4.8 | 9.7 | 0.00 | 0.00 | 0.00 | 65 | 1020.5 |
| 20260906020003 | 25 | 255 | 3.2 | 9.7 | 0.00 | 0.00 | 0.00 | 68 | 1020.8 |
| 20260906015503 | 25 | 315 | 0.0 | 1.6 | 0.00 | 0.00 | 0.00 | 70 | 1020.7 |
| 20260906015216 | 25 | 292 | 0.0 | 1.6 | 0.00 | 0.00 | 0.00 | 70 | 1020.9 |
| 20260906014503 | 25 | 8 | 1.6 | 4.8 | 0.00 | 0.00 | 0.00 | 70 | 1020.9 |
| 20260906014003 | 25 | 357 | 3.2 | 4.8 | 0.00 | 0.00 | 0.00 | 70 | 1020.5 |
| 20260906013503 | 25 | 302 | 3.2 | 4.8 | 0.00 | 0.00 | 0.00 | 70 | 1020.8 |
| 20260906013003 | 25 | 258 | 3.2 | 6.4 | 0.00 | 0.00 | 0.00 | 71 | 1020.8 |
| 20260906012506 | 25 | 216 | 4.8 | 6.4 | 0.00 | 0.00 | 0.00 | 71 | 1020.9 |
| 20260906012219 | 25 | 225 | 6.4 | 6.4 | 0.00 | 0.00 | 0.00 | 71 | 1020.8 |
| 20260906011503 | 26 | 303 | 3.2 | 6.4 | 0.00 | 0.00 | 0.00 | 70 | 1020.8 |
| 20260906011003 | 26 | 281 | 3.2 | 4.8 | 0.00 | 0.00 | 0.00 | 70 | 1020.9 |
| 20260906010504 | 26 | 274 | 4.8 | 4.8 | 0.00 | 0.00 | 0.00 | 70 | 1020.9 |
| 20260906010004 | 26 | 270 | 3.2 | 4.8 | 0.00 | 0.00 | 0.00 | 69 | 1021.0 |
| 20260906005503 | 26 | 294 | 3.2 | 4.8 | 0.00 | 0.00 | 0.00 | 67 | 1021.0 |
| 20260906005217 | 25 | 309 | 3.2 | 4.8 | 0.00 | 0.00 | 0.00 | 67 | 1021.0 |
| 20260906004504 | 25 | 315 | 1.6 | 1.6 | 0.00 | 0.00 | 0.00 | 66 | 1020.9 |
| 20260906004213 | 25 | 313 | 1.6 | 3.2 | 0.00 | 0.00 | 0.00 | 66 | 1021.1 |
| 20260906003503 | 25 | 264 | 3.2 | 6.4 | 0.00 | 0.00 | 0.00 | 66 | 1021.2 |
| 20260906003003 | 25 | 211 | 6.4 | 8.0 | 0.00 | 0.00 | 0.00 | 66 | 1021.1 |
| 20260906002503 | 25 | 209 | 6.4 | 8.0 | 0.00 | 0.00 | 0.00 | 66 | 1021.1 |
| 20260906002004 | 25 | 256 | 3.2 | 6.4 | 0.00 | 0.00 | 0.00 | 66 | 1021.2 |
| 20260906001503 | 25 | 261 | 3.2 | 4.8 | 0.00 | 0.00 | 0.00 | 66 | 1021.0 |
| 20260906001003 | 25 | 264 | 3.2 | 4.8 | 0.00 | 0.00 | 0.00 | 66 | 1021.0 |
| 20260906000503 | 25 | 254 | 4.8 | 6.4 | 0.00 | 0.00 | 0.00 | 68 | 1021.0 |
| 20260906000005 | 25 | 239 | 6.4 | 6.4 | 0.00 | 0.00 | 0.00 | 68 | 1021.1 |
| 20260905235503 | 25 | 239 | 4.8 | 6.4 | 0.00 | 0.00 | 0.00 | 69 | 1021.0 |
| 20260905235003 | 26 | 252 | 4.8 | 8.0 | 0.00 | 0.00 | 0.00 | 69 | 1021.3 |
| 20260905234504 | 26 | 246 | 6.4 | 8.0 | 0.00 | 0.00 | 0.00 | 70 | 1021.4 |
| 20260905234213 | 26 | 238 | 6.4 | 8.0 | 0.00 | 0.00 | 0.00 | 70 | 1021.0 |
| 20260905233503 | 26 | 209 | 6.4 | 8.0 | 0.00 | 0.00 | 0.00 | 70 | 1021.0 |
| 20260905233003 | 26 | 216 | 6.4 | 8.0 | 0.00 | 0.00 | 0.00 | 70 | 1021.2 |
| 20260905232717 | 26 | 239 | 4.8 | 8.0 | 0.00 | 0.00 | 0.00 | 70 | 1021.2 |
| 20260905232004 | 26 | 272 | 4.8 | 8.0 | 0.00 | 0.00 | 0.00 | 71 | 1021.3 |
| 20260905231713 | 26 | 287 | 4.8 | 8.0 | 0.00 | 0.00 | 0.00 | 71 | 1021.3 |
| 20260905231003 | 26 | 275 | 6.4 | 9.7 | 0.00 | 0.00 | 0.00 | 71 | 1020.9 |
| 20260905230504 | 26 | 243 | 6.4 | 9.7 | 0.00 | 0.00 | 0.00 | 70 | 1021.2 |
| 20260905230003 | 26 | 205 | 4.8 | 6.4 | 0.00 | 0.00 | 0.00 | 70 | 1021.2 |
| 20260905225503 | 26 | 217 | 4.8 | 6.4 | 0.00 | 0.00 | 0.00 | 70 | 1021.3 |
| 20260905225003 | 26 | 236 | 4.8 | 6.4 | 0.00 | 0.00 | 0.00 | 70 | 1021.1 |
| 20260905224503 | 26 | 234 | 4.8 | 6.4 | 0.00 | 0.00 | 0.00 | 70 | 1021.4 |
| 20260905224214 | 26 | 251 | 4.8 | 6.4 | 0.00 | 0.00 | 0.00 | 70 | 1021.2 |
| 20260905223504 | 26 | 296 | 3.2 | 6.4 | 0.00 | 0.00 | 0.00 | 70 | 1021.5 |
| 20260905223004 | 26 | 310 | 3.2 | 3.2 | 0.00 | 0.00 | 0.00 | 71 | 1021.7 |
| 20260905222504 | 26 | 279 | 3.2 | 4.8 | 0.00 | 0.00 | 0.00 | 70 | 1021.3 |
| 20260905222003 | 26 | 260 | 1.6 | 4.8 | 0.00 | 0.00 | 0.00 | 70 | 1021.5 |
| 20260905221504 | 26 | 183 | 1.6 | 6.4 | 0.00 | 0.00 | 0.00 | 70 | 1021.6 |
| 20260905221217 | 26 | 181 | 3.2 | 6.4 | 0.00 | 0.00 | 0.00 | 70 | 1021.3 |
| 20260905220715 | 26 | 185 | 6.4 | 6.4 | 0.00 | 0.00 | 0.00 | 70 | 1021.3 |
| 20260905220005 | 26 | 212 | 6.4 | 8.0 | 0.00 | 0.00 | 0.00 | 70 | 1021.3 |
| 20260905215504 | 26 | 223 | 6.4 | 8.0 | 0.00 | 0.00 | 0.00 | 66 | 1021.5 |
| 20260905215003 | 26 | 229 | 6.4 | 8.0 | 0.00 | 0.00 | 0.00 | 66 | 1021.3 |
| 20260905214717 | 26 | 245 | 6.4 | 8.0 | 0.00 | 0.00 | 0.00 | 70 | 1021.2 |
| 20260905214215 | 26 | 244 | 6.4 | 8.0 | 0.00 | 0.00 | 0.00 | 70 | 1021.1 |
| 20260905213504 | 26 | 261 | 4.8 | 6.4 | 0.00 | 0.00 | 0.00 | 67 | 1021.6 |
| 20260905213003 | 26 | 250 | 4.8 | 8.0 | 0.00 | 0.00 | 0.00 | 71 | 1021.3 |
| 20260905212503 | 26 | 240 | 6.4 | 8.0 | 0.00 | 0.00 | 0.00 | 68 | 1021.5 |
| 20260905212004 | 26 | 257 | 4.8 | 8.0 | 0.00 | 0.00 | 0.00 | 69 | 1021.5 |
| 20260905211504 | 26 | 247 | 4.8 | 6.4 | 0.00 | 0.00 | 0.00 | 70 | 1021.4 |
| 20260905211003 | 26 | 229 | 6.4 | 8.0 | 0.00 | 0.00 | 0.00 | 70 | 1021.3 |
| 20260905210716 | 26 | 237 | 4.8 | 8.0 | 0.00 | 0.00 | 0.00 | 70 | 1021.4 |
| 20260905210004 | 26 | 216 | 6.4 | 9.7 | 0.00 | 0.00 | 0.00 | 69 | 1021.4 |
| 20260905205503 | 26 | 216 | 6.4 | 9.7 | 0.00 | 0.00 | 0.00 | 69 | 1021.6 |
| 20260905205003 | 26 | 245 | 6.4 | 8.0 | 0.00 | 0.00 | 0.00 | 68 | 1021.1 |
| 20260905204503 | 27 | 261 | 4.8 | 6.4 | 0.00 | 0.00 | 0.00 | 68 | 1021.6 |
| 20260905204004 | 27 | 228 | 4.8 | 6.4 | 0.00 | 0.00 | 0.00 | 68 | 1021.2 |
| 20260905203506 | 27 | 232 | 4.8 | 6.4 | 0.00 | 0.00 | 0.00 | 69 | 1021.4 |
| 20260905203004 | 27 | 245 | 4.8 | 6.4 | 0.00 | 0.00 | 0.00 | 69 | 1021.6 |
| 20260905202506 | 27 | 272 | 4.8 | 6.4 | 0.00 | 0.00 | 0.00 | 69 | 1021.6 |
| 20260905202003 | 27 | 267 | 4.8 | 4.8 | 0.00 | 0.00 | 0.00 | 69 | 1021.7 |
| 20260905201504 | 27 | 259 | 3.2 | 4.8 | 0.00 | 0.00 | 0.00 | 69 | 1021.6 |
| 20260905201003 | 27 | 279 | 3.2 | 3.2 | 0.00 | 0.00 | 0.00 | 69 | 1021.6 |
| 20260905200503 | 27 | 273 | 3.2 | 3.2 | 0.00 | 0.00 | 0.00 | 68 | 1021.7 |
| 20260905200003 | 27 | 300 | 1.6 | 4.8 | 0.00 | 0.00 | 0.00 | 68 | 1021.7 |
| 20260905195504 | 27 | 293 | 3.2 | 4.8 | 0.00 | 0.00 | 0.00 | 68 | 1021.6 |
| 20260905195004 | 27 | 270 | 3.2 | 4.8 | 0.00 | 0.00 | 0.00 | 68 | 1021.5 |
| 20260905194504 | 27 | 271 | 3.2 | 6.4 | 0.00 | 0.00 | 0.00 | 67 | 1021.8 |
| 20260905194004 | 27 | 268 | 1.6 | 6.4 | 0.00 | 0.00 | 0.00 | 67 | 1021.7 |
| 20260905193503 | 27 | 246 | 1.6 | 6.4 | 0.00 | 0.00 | 0.00 | 67 | 1021.7 |
| 20260905193003 | 27 | 0 | 0.0 | 0.0 | 0.00 | 0.00 | 0.00 | 67 | 1021.6 |
| 20260905192504 | 27 | 360 | 1.6 | 6.4 | 0.00 | 0.00 | 0.00 | 67 | 1021.6 |
| 20260905192004 | 27 | 312 | 3.2 | 6.4 | 0.00 | 0.00 | 0.00 | 67 | 1021.7 |
| 20260905191504 | 27 | 237 | 1.6 | 4.8 | 0.00 | 0.00 | 0.00 | 67 | 1021.7 |
| 20260905191006 | 27 | 282 | 1.6 | 3.2 | 0.00 | 0.00 | 0.00 | 67 | 1021.5 |
| 20260905190717 | 27 | 315 | 1.6 | 3.2 | 0.00 | 0.00 | 0.00 | 67 | 1021.6 |
| 20260905190215 | 27 | 315 | 1.6 | 3.2 | 0.00 | 0.00 | 0.00 | 66 | 1021.3 |
| 20260905185503 | 27 | 301 | 3.2 | 4.8 | 0.00 | 0.00 | 0.00 | 65 | 1021.2 |
| 20260905185003 | 27 | 311 | 4.8 | 4.8 | 0.00 | 0.00 | 0.00 | 65 | 1021.1 |
| 20260905184504 | 27 | 330 | 3.2 | 4.8 | 0.00 | 0.00 | 0.00 | 65 | 1021.2 |
| 20260905184003 | 27 | 328 | 3.2 | 4.8 | 0.00 | 0.00 | 0.00 | 65 | 1021.4 |
| 20260905183503 | 27 | 321 | 4.8 | 4.8 | 0.00 | 0.00 | 0.00 | 65 | 1021.3 |
| 20260905183003 | 27 | 314 | 3.2 | 4.8 | 0.00 | 0.00 | 0.00 | 64 | 1021.3 |
| 20260905182503 | 27 | 315 | 3.2 | 6.4 | 0.00 | 0.00 | 0.00 | 64 | 1021.1 |
| 20260905182003 | 27 | 305 | 4.8 | 8.0 | 0.00 | 0.00 | 0.00 | 64 | 1021.2 |
| 20260905181503 | 27 | 305 | 4.8 | 9.7 | 0.00 | 0.00 | 0.00 | 64 | 1021.1 |
| 20260905181214 | 27 | 310 | 4.8 | 9.7 | 0.00 | 0.00 | 0.00 | 63 | 1021.1 |
| 20260905180504 | 27 | 312 | 6.4 | 8.0 | 0.00 | 0.00 | 0.00 | 63 | 1021.0 |
| 20260905180003 | 27 | 305 | 6.4 | 8.0 | 0.00 | 0.00 | 0.00 | 63 | 1020.9 |
| 20260905175503 | 27 | 316 | 8.0 | 9.7 | 0.00 | 0.00 | 0.00 | 63 | 1021.0 |
| 20260905175004 | 27 | 330 | 9.7 | 11.3 | 0.00 | 0.00 | 0.00 | 63 | 1020.9 |
| 20260905174503 | 27 | 331 | 9.7 | 11.3 | 0.00 | 0.00 | 0.00 | 63 | 1021.1 |
| 20260905174004 | 28 | 324 | 9.7 | 11.3 | 0.00 | 0.00 | 0.00 | 62 | 1020.9 |
| 20260905173503 | 28 | 311 | 6.4 | 8.0 | 0.00 | 0.00 | 0.00 | 62 | 1021.1 |
| 20260905173005 | 28 | 310 | 6.4 | 11.3 | 0.00 | 0.00 | 0.00 | 62 | 1020.8 |
| 20260905172503 | 28 | 319 | 9.7 | 11.3 | 0.00 | 0.00 | 0.00 | 62 | 1020.9 |
| 20260905172003 | 28 | 321 | 11.3 | 11.3 | 0.00 | 0.00 | 0.00 | 61 | 1021.1 |
| 20260905171504 | 28 | 319 | 11.3 | 14.5 | 0.00 | 0.00 | 0.00 | 61 | 1021.0 |
| 20260905171215 | 28 | 313 | 11.3 | 14.5 | 0.00 | 0.00 | 0.00 | 61 | 1020.8 |
| 20260905170504 | 28 | 320 | 9.7 | 12.9 | 0.00 | 0.00 | 0.00 | 60 | 1020.8 |
| 20260905170003 | 28 | 330 | 11.3 | 12.9 | 0.00 | 0.00 | 0.00 | 60 | 1020.8 |
| 20260905165503 | 28 | 332 | 11.3 | 12.9 | 0.00 | 0.00 | 0.00 | 60 | 1020.7 |
| 20260905165004 | 29 | 327 | 12.9 | 16.1 | 0.00 | 0.00 | 0.00 | 58 | 1020.8 |
| 20260905164504 | 29 | 327 | 12.9 | 16.1 | 0.00 | 0.00 | 0.00 | 54 | 1020.8 |
| 20260905164003 | 29 | 334 | 11.3 | 12.9 | 0.00 | 0.00 | 0.00 | 54 | 1021.0 |
| 20260905163503 | 29 | 324 | 11.3 | 12.9 | 0.00 | 0.00 | 0.00 | 55 | 1020.8 |
| 20260905163004 | 29 | 325 | 11.3 | 14.5 | 0.00 | 0.00 | 0.00 | 54 | 1020.7 |
| 20260905162503 | 30 | 344 | 8.0 | 14.5 | 0.00 | 0.00 | 0.00 | 55 | 1020.9 |
| 20260905162003 | 30 | 351 | 6.4 | 11.3 | 0.00 | 0.00 | 0.00 | 53 | 1020.9 |
| 20260905161503 | 30 | 340 | 6.4 | 11.3 | 0.00 | 0.00 | 0.00 | 54 | 1020.6 |
| 20260905161003 | 30 | 4 | 8.0 | 12.9 | 0.00 | 0.00 | 0.00 | 55 | 1020.6 |
| 20260905160506 | 29 | 346 | 12.9 | 16.1 | 0.00 | 0.00 | 0.00 | 55 | 1020.9 |
| 20260905160003 | 29 | 330 | 14.5 | 16.1 | 0.00 | 0.00 | 0.00 | 57 | 1020.9 |
| 20260905155504 | 29 | 331 | 14.5 | 17.7 | 0.00 | 0.00 | 0.00 | 57 | 1020.6 |
| 20260905155004 | 29 | 333 | 14.5 | 17.7 | 0.00 | 0.00 | 0.00 | 55 | 1020.9 |
| 20260905154715 | 29 | 335 | 14.5 | 17.7 | 0.00 | 0.00 | 0.00 | 56 | 1021.1 |
| 20260905154004 | 30 | 336 | 12.9 | 17.7 | 0.00 | 0.00 | 0.00 | 55 | 1020.7 |
| 20260905153716 | 30 | 328 | 11.3 | 16.1 | 0.00 | 0.00 | 0.00 | 55 | 1021.0 |
| 20260905153004 | 30 | 326 | 12.9 | 16.1 | 0.00 | 0.00 | 0.00 | 52 | 1021.1 |
| 20260905152504 | 30 | 346 | 12.9 | 16.1 | 0.00 | 0.00 | 0.00 | 52 | 1020.9 |
| 20260905152004 | 29 | 346 | 11.3 | 16.1 | 0.00 | 0.00 | 0.00 | 53 | 1021.0 |
| 20260905151503 | 30 | 330 | 11.3 | 20.9 | 0.00 | 0.00 | 0.00 | 55 | 1021.1 |
| 20260905151004 | 29 | 314 | 14.5 | 20.9 | 0.00 | 0.00 | 0.00 | 53 | 1021.0 |
| 20260905150714 | 29 | 324 | 16.1 | 20.9 | 0.00 | 0.00 | 0.00 | 53 | 1020.8 |
| 20260905150217 | 30 | 336 | 14.5 | 16.1 | 0.00 | 0.00 | 0.00 | 54 | 1021.0 |
| 20260905145503 | 29 | 323 | 16.1 | 20.9 | 0.00 | 0.00 | 0.00 | 55 | 1021.1 |
| 20260905145213 | 30 | 314 | 17.7 | 24.1 | 0.00 | 0.00 | 0.00 | 55 | 1020.8 |
| 20260905144503 | 30 | 338 | 17.7 | 24.1 | 0.00 | 0.00 | 0.00 | 57 | 1021.0 |
| 20260905144004 | 30 | 333 | 17.7 | 24.1 | 0.00 | 0.00 | 0.00 | 58 | 1020.9 |
| 20260905143503 | 30 | 322 | 16.1 | 24.1 | 0.00 | 0.00 | 0.00 | 57 | 1020.8 |
| 20260905143004 | 30 | 312 | 16.1 | 20.9 | 0.00 | 0.00 | 0.00 | 57 | 1020.9 |
| 20260905142713 | 30 | 316 | 14.5 | 20.9 | 0.00 | 0.00 | 0.00 | 56 | 1020.9 |
| 20260905142003 | 30 | 343 | 14.5 | 20.9 | 0.00 | 0.00 | 0.00 | 56 | 1021.1 |
| 20260905141503 | 29 | 344 | 19.3 | 25.7 | 0.00 | 0.00 | 0.00 | 58 | 1020.9 |
| 20260905141004 | 29 | 329 | 20.9 | 25.7 | 0.00 | 0.00 | 0.00 | 60 | 1021.0 |
| 20260905140715 | 30 | 319 | 20.9 | 25.7 | 0.00 | 0.00 | 0.00 | 60 | 1021.0 |
| 20260905140213 | 29 | 310 | 22.5 | 30.6 | 0.00 | 0.00 | 0.00 | 60 | 1021.0 |
| 20260905135716 | 29 | 322 | 20.9 | 30.6 | 0.00 | 0.00 | 0.00 | 60 | 1021.0 |
| 20260905135003 | 30 | 320 | 20.9 | 25.7 | 0.00 | 0.00 | 0.00 | 58 | 1021.0 |
| 20260905134504 | 29 | 319 | 20.9 | 25.7 | 0.00 | 0.00 | 0.00 | 57 | 1021.2 |
| 20260905134006 | 30 | 323 | 19.3 | 25.7 | 0.00 | 0.00 | 0.00 | 56 | 1020.8 |
| 20260905133503 | 30 | 342 | 19.3 | 25.7 | 0.00 | 0.00 | 0.00 | 58 | 1020.9 |
| 20260905133003 | 30 | 358 | 19.3 | 25.7 | 0.00 | 0.00 | 0.00 | 55 | 1021.0 |
| 20260905132714 | 30 | 343 | 19.3 | 25.7 | 0.00 | 0.00 | 0.00 | 56 | 1021.2 |
| 20260905132003 | 30 | 316 | 19.3 | 25.7 | 0.00 | 0.00 | 0.00 | 57 | 1021.1 |
| 20260905131504 | 30 | 322 | 20.9 | 25.7 | 0.00 | 0.00 | 0.00 | 58 | 1021.1 |
| 20260905131003 | 30 | 328 | 19.3 | 25.7 | 0.00 | 0.00 | 0.00 | 55 | 1020.8 |
| 20260905130503 | 30 | 325 | 19.3 | 24.1 | 0.00 | 0.00 | 0.00 | 59 | 1021.0 |
| 20260905130004 | 30 | 324 | 20.9 | 25.7 | 0.00 | 0.00 | 0.00 | 56 | 1021.2 |
| 20260905125503 | 30 | 313 | 20.9 | 25.7 | 0.00 | 0.00 | 0.00 | 55 | 1021.1 |
| 20260905125003 | 30 | 317 | 16.1 | 24.1 | 0.00 | 0.00 | 0.00 | 52 | 1021.1 |
| 20260905124503 | 31 | 345 | 14.5 | 19.3 | 0.00 | 0.00 | 0.00 | 48 | 1021.0 |
| 20260905124215 | 31 | 354 | 14.5 | 19.3 | 0.00 | 0.00 | 0.00 | 47 | 1021.1 |
| 20260905123713 | 31 | 340 | 12.9 | 19.3 | 0.00 | 0.00 | 0.00 | 41 | 1021.0 |
| 20260905123003 | 31 | 340 | 9.7 | 17.7 | 0.00 | 0.00 | 0.00 | 42 | 1021.0 |
| 20260905122714 | 31 | 2 | 8.0 | 11.3 | 0.00 | 0.00 | 0.00 | 44 | 1021.0 |
| 20260905122004 | 31 | 20 | 9.7 | 12.9 | 0.00 | 0.00 | 0.00 | 43 | 1021.2 |
| 20260905121505 | 31 | 340 | 12.9 | 16.1 | 0.00 | 0.00 | 0.00 | 48 | 1021.2 |
| 20260905121003 | 31 | 321 | 16.1 | 16.1 | 0.00 | 0.00 | 0.00 | 48 | 1021.0 |
| 20260905120504 | 31 | 330 | 14.5 | 16.1 | 0.00 | 0.00 | 0.00 | 48 | 1021.0 |
| 20260905120004 | 31 | 35 | 11.3 | 16.1 | 0.00 | 0.00 | 0.00 | 48 | 1020.9 |
| 20260905115503 | 31 | 50 | 12.9 | 16.1 | 0.00 | 0.00 | 0.00 | 50 | 1021.2 |
| 20260905115004 | 30 | 66 | 16.1 | 19.3 | 0.00 | 0.00 | 0.00 | 52 | 1021.1 |
| 20260905114503 | 30 | 66 | 14.5 | 19.3 | 0.00 | 0.00 | 0.00 | 52 | 1021.1 |
| 20260905114007 | 31 | 76 | 14.5 | 16.1 | 0.00 | 0.00 | 0.00 | 51 | 1021.0 |